This is the latest recevied weather packets stored in our database for station/object EA4HRG-10. If no packets are shown the sender has not sent any weather packets the latest 10 day(s).
| Time | Temp. | Humidity | Pressure | Rain* | Wind** | Luminosity | Snow |
|---|---|---|---|---|---|---|---|
| 1788318638 | 15.56° C | 81% | 1022.2 hPa | - | - | - | - |
| 1788317738 | 16.11° C | 79% | 1022 hPa | - | - | - | - |
| 1788316838 | 16.67° C | 78% | 1021.9 hPa | - | - | - | - |
| 1788315938 | 16.67° C | 79% | 1021.8 hPa | - | - | - | - |
| 1788315038 | 17.22° C | 77% | 1021.7 hPa | - | - | - | - |
| 1788314138 | 16.67° C | 77% | 1021.8 hPa | - | - | - | - |
| 1788313238 | 17.22° C | 75% | 1021.7 hPa | - | - | - | - |
| 1788312338 | 17.78° C | 75% | 1021.5 hPa | - | - | - | - |
| 1788311438 | 18.33° C | 74% | 1021.5 hPa | - | - | - | - |
| 1788310538 | 18.33° C | 73% | 1021.2 hPa | - | - | - | - |
| 1788309638 | 18.33° C | 72% | 1021.2 hPa | - | - | - | - |
| 1788308738 | 18.89° C | 70% | 1021.1 hPa | - | - | - | - |
| 1788307838 | 18.89° C | 72% | 1020.9 hPa | - | - | - | - |
| 1788306938 | 19.44° C | 70% | 1020.6 hPa | - | - | - | - |
| 1788306038 | 20° C | 68% | 1020.4 hPa | - | - | - | - |
| 1788305138 | 20° C | 68% | 1020.2 hPa | - | - | - | - |
| 1788304238 | 20.56° C | 65% | 1019.9 hPa | - | - | - | - |
| 1788303338 | 21.11° C | 61% | 1019.6 hPa | - | - | - | - |
| 1788302438 | 21.67° C | 62% | 1019.4 hPa | - | - | - | - |
| 1788301538 | 21.67° C | 62% | 1019.2 hPa | - | - | - | - |
| 1788300638 | 22.22° C | 60% | 1019.1 hPa | - | - | - | - |
| 1788299738 | 22.78° C | 61% | 1018.9 hPa | - | - | - | - |
| 1788298838 | 22.78° C | 60% | 1018.6 hPa | - | - | - | - |
| 1788297938 | 23.33° C | 57% | 1018.4 hPa | - | - | - | - |
| 1788297039 | 23.89° C | 57% | 1018.1 hPa | - | - | - | - |
* Rain since midnight (hover to see other rain measurements)
** Current wind speed in m/s (hover to see current wind gust speed)